SCP
0 0 -0 -0 -0 -0 -0 -0 -0 -0 -0 -0 -0 -0 -0 -0 -0 -0 -0 -0 -0 -0 -0 -0 0 0 -0 -0 0 0 -0 0 0 0 0 0 0 0 0 0 0 0 0
0 0 -0 -1 -1 -0 0 -0 -0 -0 -0 -0 -0 -0 -0 -0 0 0 0 0 0 0 0 0 0 -0 -0 0 0 -0 0 0 0 0 0 0 0 0 0 0 -0 0 0
0 0 0 -1 -1 -0 -0 0 0 0 0 0 0 0 0 0 0 0 0 0 0 0 0 0 0 0 0 0 -0 -0 0 0 0 0 0 0 0 0 0 0 0 0 0
-0 -0 -0 -1 -1 -0 -0 -0 0 0 0 0 0 0 0 0 0 0 0 0 0 0 0 0 0 0 0 -0 -0 -0 -0 0 0 0 0 0 0 0 0 0 0 0 0
0 0 -0 -1 -1 -0 -0 -0 -0 0 0 0 0 0 0 0 0 0 0 0 0 0 0 0 0 0 -0 -0 -0 -0 -0 0 0 0 0 0 0 0 0 0 0 0 0
0 0 -0 -1 -1 -0 -0 -0 -0 -0 -0 0 0 0 0 0 0 0 0 0 0 0 0 0 0 -0 -0 -0 -0 -0 -0 0 0 0 0 0 0 0 1 1 0 0 0
0 0 -0 -1 -1 -0 -0 -0 -0 -0 -0 -0 -0 0 0 0 0 0 0 0 0 0 0 0 0 -0 -0 -0 -0 -0 -0 -0 -0 0 0 0 0 1 1 1 0 1 0
-0 -0 -0 -1 -1 -1 -0 -0 -0 -0 -0 -0 -0 0 0 0 0 0 0 0 0 0 0 0 0 0 -0 -0 -0 -0 0 -0 0 0 0 0 0 0 1 1 1 1 0
0 -0 -0 -0 -0 -0 -0 -0 -0 -0 -0 -0 -0 -0 -0 -0 -0 -0 -0 -0 0 0 0 0 0 -0 -0 -0 -0 0 0 0 0 0 0 0 0 0 1 1 1 1 0
0 0 0 -0 -0 -0 -0 -0 -0 -0 -0 -0 -0 -0 -0 -0 -0 -0 -0 -0 -0 -0 0 0 0 0 0 0 0 0 0 0 0 0 0 0 0 0 1 1 1 1 0
1 0 0 0 0 -0 -0 -0 -0 -0 -0 -0 -0 -0 -0 -0 -0 -0 -0 -0 -0 -0 -0 -0 -0 -0 -0 0 0 0 0 0 0 0 0 0 0 0 1 1 1 1 1
1 -0 0 0 -0 -0 -0 -0 -0 -0 -0 -0 -0 -0 -0 -0 -0 -0 -0 -0 -0 -0 -0 -0 -0 0 0 0 0 0 0 0 0 0 0 1 1 1 2 1 1 1 0
1 0 -0 0 0 -0 -0 0 0 0 0 0 -0 -0 -0 -0 -0 -0 0 0 0 -0 0 0 0 0 0 0 0 0 0 0 0 0 0 2 2 2 1 1 2 1 1
1 0 -0 -0 0 -0 0 0 0 0 0 0 -0 0 0 0 0 0 0 0 0 0 0 0 0 0 0 0 0 0 0 0 0 0 0 1 2 1 1 1 1 0 0
-0 -0 -0 -0 -0 0 0 0 0 0 0 -0 -0 -0 0 0 0 0 0 0 0 0 0 0 0 0 0 0 0 0 0 0 1 1 0 1 2 1 0 0 0 0 0
0 -0 -0 -0 -0 0 0 0 0 0 0 0 -0 -0 -0 0 0 0 0 0 0 0 0 0 0 0 0 0 0 0 1 1 0 0 0 0 1 0 0 0 0 0 0
-0 0 -0 -0 -0 -0 0 0 0 0 0 0 0 0 0 0 0 0 0 0 0 0 0 0 0 0 0 0 0 0 0 0 0 0 0 0 0 1 1 0 0 0 0
-0 0 -0 -0 -0 0 0 1 1 0 0 0 0 0 0 0 0 0 0 0 -0 0 0 0 0 0 0 0 0 0 0 0 0 0 0 0 0 0 0 0 0 0 0
0 0 0 0 0 0 1 1 1 1 1 1 0 0 0 0 0 0 0 0 0 0 0 0 0 0 0 0 0 0 0 0 0 0 0 0 0 0 0 0 0 0 0
1 1 1 1 0 1 1 1 1 1 1 1 0 0 0 0 0 0 0 0 0 0 0 0 0 0 0 0 0 0 0 0 0 0 0 0 0 0 0 0 0 0 0
0 1 1 2 0 1 4 4 2 2 1 1 0 0 0 0 0 0 0 0 -0 0 0 0 0 0 0 0 0 0 0 0 0 0 0 0 0 0 0 0 0 0 0
-0 0 1 2 2 2 0 1 3 3 1 0 0 0 1 0 0 -0 -0 -0 -0 -0 -0 -0 0 0 0 0 0 0 0 0 0 0 0 0 0 0 0 0 0 0 0
-0 0 0 1 1 1 1 1 1 0 0 0 0 0 -0 0 0 -0 -0 0 -0 -0 -0 0 0 0 1 0 0 0 0 0 0 0 0 0 0 0 0 0 0 0 0
0 0 0 0 0 1 0 0 0 -0 -0 -0 0 0 0 -0 0 0 0 -0 -0 -0 0 0 0 1 0 0 0 0 0 0 0 0 0 0 0 0 0 0 0 0 0
0 0 0 0 0 0 0 -0 -0 -0 -0 -0 -0 0 0 0 0 0 0 0 0 0 0 1 1 0 0 0 0 0 0 0 0 0 0 0 0 0 0 0 0 0 0
0 0 0 0 0 0 0 0 -0 -0 -0 -0 -0 0 0 0 0 0 0 0 0 0 1 0 0 0 0 0 0 0 0 0 0 0 0 0 0 0 0 0 0 0 0
Wind_Speed_500mb
40 53 52 50 49 45 44 44 44 43 42 40 40 37 34 31 29 28 28 29 30 33 30 27 23 21 19 19 17 14 11 12 13 14 12 10 9 5 6 11 14 15 17
45 54 53 52 52 47 45 44 43 40 39 37 38 38 37 35 33 32 31 31 31 32 29 25 21 18 18 18 16 14 16 16 13 10 6 3 2 4 2 6 8 12 16
50 49 53 53 52 49 45 43 41 38 35 33 34 34 34 33 32 30 29 29 29 29 26 24 19 17 17 18 18 19 20 19 16 12 7 1 10 11 5 8 5 7 17
46 46 51 52 51 49 45 41 38 35 32 30 30 30 30 29 29 28 26 24 23 23 22 21 20 20 18 18 21 22 22 20 19 13 6 3 2 7 10 13 12 14 22
38 43 48 50 50 48 44 40 37 34 31 29 28 27 27 26 24 21 19 18 17 18 20 20 20 20 19 18 19 20 20 19 17 13 9 9 15 14 16 20 14 20 23
32 44 49 48 48 46 43 39 35 33 31 29 27 25 24 22 19 17 15 13 13 15 17 18 20 21 20 19 19 20 18 17 17 15 15 18 16 8 26 27 19 23 25
29 43 48 49 47 45 43 39 35 32 31 28 26 23 22 20 18 17 15 13 13 16 19 21 23 23 22 22 21 21 20 19 19 18 18 21 24 13 26 29 25 31 28
18 35 41 44 44 44 42 40 36 32 29 27 24 22 22 22 22 21 19 17 15 16 20 24 26 26 26 27 27 27 26 24 24 22 23 25 25 27 30 39 40 35 31
25 30 34 40 43 42 40 38 35 32 30 27 25 24 24 25 26 25 23 21 19 17 19 24 27 29 30 31 33 32 30 27 28 28 28 30 32 32 31 36 38 37 31
28 23 20 36 40 42 41 38 35 33 31 29 28 28 28 29 28 28 27 26 23 20 20 23 24 28 31 32 35 34 34 34 33 32 31 31 30 23 27 32 36 34 31
35 29 26 32 40 43 42 40 38 36 34 34 33 32 32 31 29 28 28 25 25 26 25 23 23 26 30 35 39 39 42 39 38 35 33 32 26 27 24 36 39 35 33
50 41 36 32 39 43 45 43 40 39 39 38 36 34 32 29 29 29 30 31 30 29 27 26 26 30 35 40 43 43 47 43 44 41 39 35 33 33 32 37 44 38 33
51 42 41 36 35 44 47 46 44 41 40 39 38 37 35 34 34 35 34 35 34 29 29 28 28 30 32 36 41 46 50 51 49 44 43 51 54 34 33 39 32 31 33
52 39 41 44 36 40 42 46 46 43 37 31 32 40 39 39 38 38 39 35 34 29 29 32 35 36 41 40 39 44 52 57 55 53 50 47 46 44 43 43 49 54 49
44 42 47 48 47 40 35 34 45 43 40 30 22 27 36 38 33 32 36 38 39 34 37 40 43 43 47 52 50 46 50 51 52 55 48 54 55 57 64 54 55 53 61
38 37 43 54 52 45 41 40 39 43 42 42 36 28 25 23 19 20 24 30 40 41 40 44 52 57 62 57 60 60 59 56 59 63 65 58 50 63 59 51 60 70 70
55 38 42 52 56 48 48 42 43 42 49 51 45 37 33 30 26 29 30 28 33 40 52 57 62 65 68 64 64 65 65 66 65 75 72 67 59 55 56 63 78 84 79
59 66 57 58 58 57 54 48 47 42 48 52 47 45 44 41 37 41 45 45 43 42 50 60 68 74 72 72 74 69 63 63 71 78 63 61 63 62 66 69 63 70 67
54 71 73 67 62 61 61 54 53 58 51 53 53 48 42 50 59 60 54 51 53 54 57 58 68 80 83 82 76 70 69 72 70 62 66 70 74 72 57 39 30 44 39
12 56 66 65 65 61 59 59 64 60 63 59 59 55 44 50 57 55 50 47 46 59 52 42 61 71 88 83 76 71 74 73 73 72 75 76 66 48 38 33 36 32 26
43 20 30 38 40 44 70 76 67 72 62 60 66 70 60 57 52 40 47 69 66 60 76 87 74 63 77 79 69 68 69 69 61 55 42 38 29 28 28 31 30 22 23
39 30 25 6 18 37 61 66 65 62 68 60 58 54 34 40 56 52 71 69 77 85 82 79 80 58 58 60 62 66 49 38 31 16 15 18 14 15 20 22 22 25 29
53 49 33 23 14 26 24 33 47 56 49 39 45 22 37 49 48 62 63 52 61 77 88 92 64 55 61 58 55 36 19 13 19 10 7 11 10 15 16 19 24 23 31
56 49 46 42 36 39 62 40 49 59 61 48 15 20 34 31 18 23 46 59 72 57 47 45 42 43 44 39 45 45 45 33 11 8 14 13 20 16 20 25 23 25 35
58 56 53 50 53 56 65 65 65 65 64 49 39 42 29 15 23 42 42 40 44 40 40 37 40 41 40 31 34 43 29 30 22 21 25 11 10 12 17 25 29 36 41
56 62 65 66 67 68 67 63 62 60 64 64 48 35 23 15 20 26 34 39 38 38 38 38 41 32 29 28 28 22 29 24 18 14 15 14 15 11 15 13 17 23 32
Wind_Direction_500mb
188 181 173 173 169 160 153 147 142 140 142 146 150 150 149 148 149 151 154 154 158 160 155 153 152 152 155 156 155 161 156 142 136 130 125 110 97 78 45 48 41 35 30
182 178 173 174 171 164 157 152 147 142 139 141 143 146 149 151 153 155 159 163 166 166 164 162 161 164 173 180 182 180 165 158 154 150 113 75 284 257 6 45 46 24 21
179 176 172 175 172 167 162 158 153 147 144 143 143 145 148 151 154 158 162 166 170 172 175 175 177 178 183 192 195 188 178 168 175 186 156 231 269 256 268 331 4 13 355
180 173 171 174 173 171 167 162 157 155 153 151 150 151 152 155 160 161 164 168 173 178 187 192 198 202 202 207 200 193 188 182 183 200 212 240 12 222 237 290 318 321 326
173 172 170 172 174 173 171 167 166 166 164 162 161 161 161 162 165 167 173 182 189 195 202 206 211 215 216 218 206 202 203 202 197 219 245 255 314 248 258 272 297 308 316
173 175 171 172 174 175 177 175 174 174 173 171 171 169 168 168 171 177 184 195 207 215 221 223 225 226 227 225 217 214 219 223 227 234 258 272 285 275 252 261 278 294 305
171 177 171 172 175 177 181 183 183 181 180 179 178 177 175 176 181 188 197 208 221 227 228 226 230 230 230 231 228 229 233 241 247 253 268 280 283 263 253 259 275 287 295
124 166 178 177 180 181 184 187 188 188 186 187 184 185 185 188 194 200 205 214 224 234 232 231 228 230 229 230 230 231 235 240 249 260 269 276 277 268 268 271 278 274 283
140 157 177 185 185 186 187 189 190 191 192 192 192 195 198 201 204 209 214 221 228 236 239 236 229 230 231 233 235 237 243 251 259 268 273 274 274 271 267 266 263 269 276
161 154 171 187 193 192 190 190 193 197 199 200 202 203 206 210 213 217 223 228 237 244 253 253 247 243 243 244 247 248 251 253 260 267 272 273 271 257 255 257 260 262 277
182 182 181 192 195 197 197 197 198 202 208 210 212 213 215 219 223 228 235 242 248 251 253 256 255 252 249 247 248 249 251 254 258 259 260 271 251 260 260 249 260 263 279
190 192 195 201 196 200 203 205 206 209 215 221 223 225 226 228 231 235 238 241 244 248 250 263 273 271 263 260 260 257 256 255 251 253 248 251 253 267 253 243 257 263 279
197 193 200 202 202 208 208 210 210 213 220 228 234 236 237 237 239 242 246 246 244 248 257 269 271 282 283 275 270 266 265 262 255 251 244 259 265 264 237 249 241 265 287
202 203 205 204 207 209 214 218 218 218 216 230 247 241 242 246 249 251 252 248 248 257 270 277 280 282 275 274 273 261 259 260 259 251 252 253 264 256 230 240 247 256 266
208 207 208 211 210 198 209 213 218 215 223 231 238 241 244 245 250 256 256 249 255 261 266 274 278 277 277 270 268 260 261 264 260 249 256 265 258 257 253 266 270 269 267
213 209 213 215 213 210 210 212 224 229 231 233 232 238 245 241 250 265 269 273 268 263 268 272 273 276 277 274 266 264 266 265 261 254 262 267 259 266 263 261 276 281 276
218 215 217 218 217 230 235 236 228 233 234 236 237 237 244 246 251 266 270 276 287 275 270 271 274 276 278 277 270 267 268 264 260 260 258 262 265 255 263 279 293 280 265
223 220 222 220 221 229 235 242 236 234 237 235 234 238 236 237 245 247 249 254 252 262 267 273 273 276 276 276 277 275 264 260 260 258 265 273 265 268 281 286 279 258 257
239 228 226 226 228 230 230 234 236 245 243 236 238 237 232 236 240 239 246 258 255 254 259 273 279 279 276 275 275 269 269 263 264 262 273 276 281 280 279 279 284 243 228
19 218 221 227 233 232 231 228 238 237 243 238 239 246 239 238 243 247 251 261 274 263 252 267 293 281 275 270 269 264 274 279 274 279 283 288 280 264 259 261 274 265 264
61 97 223 227 238 243 233 227 231 237 246 245 240 238 243 246 236 241 266 285 268 266 271 283 297 286 273 271 274 283 293 297 295 294 284 274 276 256 259 256 270 255 262
42 33 47 222 252 251 250 251 252 255 245 241 248 250 229 251 312 274 270 295 273 265 280 286 294 281 276 282 287 293 293 293 299 280 274 287 283 264 243 236 236 245 249
43 37 24 18 336 280 279 282 284 290 321 316 304 283 341 344 311 266 282 293 280 267 273 280 280 279 284 289 293 281 279 225 295 250 251 308 271 243 232 218 220 233 244
40 36 31 23 13 6 20 12 13 19 30 33 22 292 284 32 272 269 242 277 283 270 270 274 282 285 286 289 296 290 289 259 244 280 251 251 269 232 233 222 229 242 254
37 33 26 17 13 11 19 17 13 12 11 11 13 1 357 344 278 264 265 275 272 267 267 269 276 283 289 287 288 291 237 245 256 256 276 230 244 247 242 245 241 247 256
34 33 33 31 27 22 21 23 20 12 7 7 5 6 355 325 295 291 279 268 272 271 276 282 285 292 295 290 287 268 269 244 244 233 237 281 299 278 283 264 240 246 254
Wind_Speed_850mb
40 53 52 50 49 45 44 44 44 43 42 40 40 37 34 31 29 28 28 29 30 33 30 27 23 21 19 19 17 14 11 12 13 14 12 10 9 5 6 11 14 15 17
45 54 53 52 52 47 45 44 43 40 39 37 38 38 37 35 33 32 31 31 31 32 29 25 21 18 18 18 16 14 16 16 13 10 6 3 2 4 2 6 8 12 16
50 49 53 53 52 49 45 43 41 38 35 33 34 34 34 33 32 30 29 29 29 29 26 24 19 17 17 18 18 19 20 19 16 12 7 1 10 11 5 8 5 7 17
46 46 51 52 51 49 45 41 38 35 32 30 30 30 30 29 29 28 26 24 23 23 22 21 20 20 18 18 21 22 22 20 19 13 6 3 2 7 10 13 12 14 22
38 43 48 50 50 48 44 40 37 34 31 29 28 27 27 26 24 21 19 18 17 18 20 20 20 20 19 18 19 20 20 19 17 13 9 9 15 14 16 20 14 20 23
32 44 49 48 48 46 43 39 35 33 31 29 27 25 24 22 19 17 15 13 13 15 17 18 20 21 20 19 19 20 18 17 17 15 15 18 16 8 26 27 19 23 25
29 43 48 49 47 45 43 39 35 32 31 28 26 23 22 20 18 17 15 13 13 16 19 21 23 23 22 22 21 21 20 19 19 18 18 21 24 13 26 29 25 31 28
18 35 41 44 44 44 42 40 36 32 29 27 24 22 22 22 22 21 19 17 15 16 20 24 26 26 26 27 27 27 26 24 24 22 23 25 25 27 30 39 40 35 31
25 30 34 40 43 42 40 38 35 32 30 27 25 24 24 25 26 25 23 21 19 17 19 24 27 29 30 31 33 32 30 27 28 28 28 30 32 32 31 36 38 37 31
28 23 20 36 40 42 41 38 35 33 31 29 28 28 28 29 28 28 27 26 23 20 20 23 24 28 31 32 35 34 34 34 33 32 31 31 30 23 27 32 36 34 31
35 29 26 32 40 43 42 40 38 36 34 34 33 32 32 31 29 28 28 25 25 26 25 23 23 26 30 35 39 39 42 39 38 35 33 32 26 27 24 36 39 35 33
50 41 36 32 39 43 45 43 40 39 39 38 36 34 32 29 29 29 30 31 30 29 27 26 26 30 35 40 43 43 47 43 44 41 39 35 33 33 32 37 44 38 33
51 42 41 36 35 44 47 46 44 41 40 39 38 37 35 34 34 35 34 35 34 29 29 28 28 30 32 36 41 46 50 51 49 44 43 51 54 34 33 39 32 31 33
52 39 41 44 36 40 42 46 46 43 37 31 32 40 39 39 38 38 39 35 34 29 29 32 35 36 41 40 39 44 52 57 55 53 50 47 46 44 43 43 49 54 49
44 42 47 48 47 40 35 34 45 43 40 30 22 27 36 38 33 32 36 38 39 34 37 40 43 43 47 52 50 46 50 51 52 55 48 54 55 57 64 54 55 53 61
38 37 43 54 52 45 41 40 39 43 42 42 36 28 25 23 19 20 24 30 40 41 40 44 52 57 62 57 60 60 59 56 59 63 65 58 50 63 59 51 60 70 70
55 38 42 52 56 48 48 42 43 42 49 51 45 37 33 30 26 29 30 28 33 40 52 57 62 65 68 64 64 65 65 66 65 75 72 67 59 55 56 63 78 84 79
59 66 57 58 58 57 54 48 47 42 48 52 47 45 44 41 37 41 45 45 43 42 50 60 68 74 72 72 74 69 63 63 71 78 63 61 63 62 66 69 63 70 67
54 71 73 67 62 61 61 54 53 58 51 53 53 48 42 50 59 60 54 51 53 54 57 58 68 80 83 82 76 70 69 72 70 62 66 70 74 72 57 39 30 44 39
12 56 66 65 65 61 59 59 64 60 63 59 59 55 44 50 57 55 50 47 46 59 52 42 61 71 88 83 76 71 74 73 73 72 75 76 66 48 38 33 36 32 26
43 20 30 38 40 44 70 76 67 72 62 60 66 70 60 57 52 40 47 69 66 60 76 87 74 63 77 79 69 68 69 69 61 55 42 38 29 28 28 31 30 22 23
39 30 25 6 18 37 61 66 65 62 68 60 58 54 34 40 56 52 71 69 77 85 82 79 80 58 58 60 62 66 49 38 31 16 15 18 14 15 20 22 22 25 29
53 49 33 23 14 26 24 33 47 56 49 39 45 22 37 49 48 62 63 52 61 77 88 92 64 55 61 58 55 36 19 13 19 10 7 11 10 15 16 19 24 23 31
56 49 46 42 36 39 62 40 49 59 61 48 15 20 34 31 18 23 46 59 72 57 47 45 42 43 44 39 45 45 45 33 11 8 14 13 20 16 20 25 23 25 35
58 56 53 50 53 56 65 65 65 65 64 49 39 42 29 15 23 42 42 40 44 40 40 37 40 41 40 31 34 43 29 30 22 21 25 11 10 12 17 25 29 36 41
56 62 65 66 67 68 67 63 62 60 64 64 48 35 23 15 20 26 34 39 38 38 38 38 41 32 29 28 28 22 29 24 18 14 15 14 15 11 15 13 17 23 32
Wind_Direction_850mb
188 181 173 173 169 160 153 147 142 140 142 146 150 150 149 148 149 151 154 154 158 160 155 153 152 152 155 156 155 161 156 142 136 130 125 110 97 78 45 48 41 35 30
182 178 173 174 171 164 157 152 147 142 139 141 143 146 149 151 153 155 159 163 166 166 164 162 161 164 173 180 182 180 165 158 154 150 113 75 284 257 6 45 46 24 21
179 176 172 175 172 167 162 158 153 147 144 143 143 145 148 151 154 158 162 166 170 172 175 175 177 178 183 192 195 188 178 168 175 186 156 231 269 256 268 331 4 13 355
180 173 171 174 173 171 167 162 157 155 153 151 150 151 152 155 160 161 164 168 173 178 187 192 198 202 202 207 200 193 188 182 183 200 212 240 12 222 237 290 318 321 326
173 172 170 172 174 173 171 167 166 166 164 162 161 161 161 162 165 167 173 182 189 195 202 206 211 215 216 218 206 202 203 202 197 219 245 255 314 248 258 272 297 308 316
173 175 171 172 174 175 177 175 174 174 173 171 171 169 168 168 171 177 184 195 207 215 221 223 225 226 227 225 217 214 219 223 227 234 258 272 285 275 252 261 278 294 305
171 177 171 172 175 177 181 183 183 181 180 179 178 177 175 176 181 188 197 208 221 227 228 226 230 230 230 231 228 229 233 241 247 253 268 280 283 263 253 259 275 287 295
124 166 178 177 180 181 184 187 188 188 186 187 184 185 185 188 194 200 205 214 224 234 232 231 228 230 229 230 230 231 235 240 249 260 269 276 277 268 268 271 278 274 283
140 157 177 185 185 186 187 189 190 191 192 192 192 195 198 201 204 209 214 221 228 236 239 236 229 230 231 233 235 237 243 251 259 268 273 274 274 271 267 266 263 269 276
161 154 171 187 193 192 190 190 193 197 199 200 202 203 206 210 213 217 223 228 237 244 253 253 247 243 243 244 247 248 251 253 260 267 272 273 271 257 255 257 260 262 277
182 182 181 192 195 197 197 197 198 202 208 210 212 213 215 219 223 228 235 242 248 251 253 256 255 252 249 247 248 249 251 254 258 259 260 271 251 260 260 249 260 263 279
190 192 195 201 196 200 203 205 206 209 215 221 223 225 226 228 231 235 238 241 244 248 250 263 273 271 263 260 260 257 256 255 251 253 248 251 253 267 253 243 257 263 279
197 193 200 202 202 208 208 210 210 213 220 228 234 236 237 237 239 242 246 246 244 248 257 269 271 282 283 275 270 266 265 262 255 251 244 259 265 264 237 249 241 265 287
202 203 205 204 207 209 214 218 218 218 216 230 247 241 242 246 249 251 252 248 248 257 270 277 280 282 275 274 273 261 259 260 259 251 252 253 264 256 230 240 247 256 266
208 207 208 211 210 198 209 213 218 215 223 231 238 241 244 245 250 256 256 249 255 261 266 274 278 277 277 270 268 260 261 264 260 249 256 265 258 257 253 266 270 269 267
213 209 213 215 213 210 210 212 224 229 231 233 232 238 245 241 250 265 269 273 268 263 268 272 273 276 277 274 266 264 266 265 261 254 262 267 259 266 263 261 276 281 276
218 215 217 218 217 230 235 236 228 233 234 236 237 237 244 246 251 266 270 276 287 275 270 271 274 276 278 277 270 267 268 264 260 260 258 262 265 255 263 279 293 280 265
223 220 222 220 221 229 235 242 236 234 237 235 234 238 236 237 245 247 249 254 252 262 267 273 273 276 276 276 277 275 264 260 260 258 265 273 265 268 281 286 279 258 257
239 228 226 226 228 230 230 234 236 245 243 236 238 237 232 236 240 239 246 258 255 254 259 273 279 279 276 275 275 269 269 263 264 262 273 276 281 280 279 279 284 243 228
19 218 221 227 233 232 231 228 238 237 243 238 239 246 239 238 243 247 251 261 274 263 252 267 293 281 275 270 269 264 274 279 274 279 283 288 280 264 259 261 274 265 264
61 97 223 227 238 243 233 227 231 237 246 245 240 238 243 246 236 241 266 285 268 266 271 283 297 286 273 271 274 283 293 297 295 294 284 274 276 256 259 256 270 255 262
42 33 47 222 252 251 250 251 252 255 245 241 248 250 229 251 312 274 270 295 273 265 280 286 294 281 276 282 287 293 293 293 299 280 274 287 283 264 243 236 236 245 249
43 37 24 18 336 280 279 282 284 290 321 316 304 283 341 344 311 266 282 293 280 267 273 280 280 279 284 289 293 281 279 225 295 250 251 308 271 243 232 218 220 233 244
40 36 31 23 13 6 20 12 13 19 30 33 22 292 284 32 272 269 242 277 283 270 270 274 282 285 286 289 296 290 289 259 244 280 251 251 269 232 233 222 229 242 254
37 33 26 17 13 11 19 17 13 12 11 11 13 1 357 344 278 264 265 275 272 267 267 269 276 283 289 287 288 291 237 245 256 256 276 230 244 247 242 245 241 247 256
34 33 33 31 27 22 21 23 20 12 7 7 5 6 355 325 295 291 279 268 272 271 276 282 285 292 295 290 287 268 269 244 244 233 237 281 299 278 283 264 240 246 254